This demonstration page uses our WeatherBlox Daily Observations layout. Learn more.

Left ArrowRight Arrow

39.12711, -84.51439

Hourly Observations for October 30, 2016

Temp ( °F °C ) Dew Point ( °F °C ) Humidity (%) Winds ( mph kmh ) Pressure ( in mb ) Visibility ( mi km ) Precip ( " mm )
12:53 am 00:53 Clear 62 16.7 57 13.9 84 84 WSW 7 11 30.04 1017 10 16 0.00 0.00
1:53 am 01:53 Clear 63 17.2 55 12.8 76 76 SW 7 11 30.05 1018 10 16 0.00 0.00
2:53 am 02:53 Clear 54 12.2 54 12.2 100 100 Calm 30.05 1018 8 13 0.00 0.00
3:53 am 03:53 Clear 56 13.3 55 12.8 97 97 Calm 30.04 1017 9 14 0.00 0.00
4:53 am 04:53 Clear 56 13.3 55 12.8 97 97 Calm 30.03 1017 8 13 0.00 0.00
5:53 am 05:53 Clear 56 13.3 55 12.8 97 97 Calm 30.02 1017 7 11 0.00 0.00
6:53 am 06:53 Partly Cloudy 57 13.9 56 13.3 96 96 Calm 30.02 1017 9 14 0.00 0.00
7:53 am 07:53 Partly Cloudy 54 12.2 54 12.2 100 100 Calm 30.02 1017 10 16 0.00 0.00
8:53 am 08:53 Partly Cloudy 54 12.2 54 12.2 100 100 Calm 30.03 1017 7 11 0.00 0.00
9:53 am 09:53 Mostly Cloudy 65 18.3 59 15 81 81 S 7 11 30.04 1017 10 16 0.00 0.00
10:53 am 10:53 Sunny 70 21.1 59 15 68 68 WSW 9 15 30.03 1017 10 16 0.00 0.00
11:53 am 11:53 Partly Cloudy 73 22.8 60 15.6 64 64 SW 9 15 30.02 1017 10 16 0.00 0.00
12:53 pm 12:53 Sunny 75 23.9 60 15.6 60 60 W 14 22 30.02 1017 10 16 0.00 0.00
1:53 pm 13:53 Sunny 75 23.9 61 16.1 62 62 WSW 8 13 30.01 1016 10 16 0.00 0.00
2:53 pm 14:53 Mostly Cloudy 78 25.6 60 15.6 54 54 WSW 12 19 30.00 1016 10 16 0.00 0.00
3:53 pm 15:53 Mostly Cloudy 76 24.4 61 16.1 60 60 W 8 13 29.99 1016 10 16 0.00 0.00
4:31 pm 16:31 Cloudy with Heavy Rain 67 19.4 65 18.3 93 93 NNE 12 19 29.97 1015 5 8 0.16 4.06
4:53 pm 16:53 Mostly Cloudy 70 21 N/A N/A N 13 20 30.02 1017 10 16 0.16 4.06
5:53 pm 17:53 Mostly Cloudy 64 18 N/A N/A N 8 13 30.06 1018 9 14 0.00 0.00
6:34 pm 18:34 Cloudy 62 16.7 62 16.7 100 100 N 8 13 30.06 1018 8 13 0.00 0.00
6:53 pm 18:53 Cloudy 61 16.1 61 16.1 100 100 N 7 11 30.10 1019 10 16 0.00 0.00
7:53 pm 19:53 Cloudy 59 15 56 13.3 90 90 NNE 12 19 30.13 1020 10 16 0.00 0.00
8:53 pm 20:53 Cloudy 58 14.4 54 12.2 87 87 NNE 16 26 30.15 1021 10 16 0.01 0.25
9:53 pm 21:53 Cloudy 57 13.9 53 11.7 87 87 NNE 8 13 30.17 1022 10 16 0.00 0.00
10:53 pm 22:53 Cloudy 56 13.3 51 10.6 84 84 NNE 8 13 30.17 1022 10 16 0.00 0.00
11:53 pm 23:53 Cloudy 55 12.8 49 9.4 80 80 NNE 13 20 30.19 1022 10 16 0.00 0.00

Powered by AerisWeather